User: anonymous   Login
Location: *
(45.5667°S, 177.5167°W)
Time: 06:34:09
(UTC+00:00)
Language:

SJ 16-02 - Orbit

View from above orbital plane
View from above orbital plane
View from above satellite
View from above satellite

Ground track
Ground track

The orbit data is extracted from the following two-line orbital elements,

1 41634U 16043A   22228.89665463  .00025038  00000-0  28170-2 0  9993
2 41634  75.0048  34.3752 0008719 197.4515 259.5303 14.86557158332639
Epoch (UTC): 16 August 2022 21:31:10
Eccentricity: 0.0008719
inclination: 75.0048°
perigee height: 602 km
apogee height: 615 km
right ascension of ascending node: 34.3752°
argument of perigee: 197.4515°
revolutions per day: 14.86557158
mean anomaly at epoch: 259.5303°
orbit number at epoch: 33263

The dashed part of the orbit path shows where the satellite is in the earth's shadow,  

DLR